sat.trackr.live / text

‹ back to catalog

KUIPER-00076

NORAD 64823 · 2025-151H

PAYLOAD ACTIVE UNKNOWN

§ Identity

Operator
Country
US
Launch date
2025-07-16
Launch site
AFETR
Launch vehicle
Mass (kg)
RCS (m²)

External: N2YO · Heavens-Above · Gunter

§ Orbital elements

Epoch: 2026-09-21T20:59:42.817632Z

Period
97.30 min
Inclination
51.9019°
Eccentricity
0.0001000
Mean motion
14.79937494 rev/d
Perigee alt
628.8 km
Apogee alt
630.2 km
Semi-major
7,007.7 km
B*
2.7475e-4
RAAN
145.5712°
Arg perigee
91.3307°
Mean anomaly
268.7770°
Rev number
6,446

§ Raw data

KUIPER-000761 64823U 25151H   26264.87480113  .00001874  00000+0  27475-3 0  99962 64823  51.9019 145.5712 0001000  91.3307 268.7770 14.79937494 64463

JSON: /api/v1/satellites/64823 · /tle

For live sub-satellite position, see the globe view (requires WebGL).

§ Visibility from observer

Set your observer location to see the next 7 days of passes ≥ 10°. The values pass through the URL so the page stays shareable.

No JS? Fill the form by hand. The geolocation button needs JavaScript.